Location: Fish Springs
(37.0754°N, 118.2540°W)
Time: 23:01:14
(UTC+00:00)

X-37B - Pass Details

Date: 27 January 2022
Orbit: 329 x 342 km, 45.0° (Epoch: 18 May)

Event Time Altitude Azimuth Distance (km) Brightness Sun altitude
Rises 02:22:36 0° 238° (WSW) 2,107 5.8 -14.3°
Reaches altitude 10° 02:24:37 10° 238° (WSW) 1,270 4.4 -14.7°
Maximum altitude 02:27:27 83° 151° (SSE) 341 0.2 -15.2°
Enters shadow 02:28:11 46° 67° (ENE) 464 0.5 -15.4°
